Location: Amarillo Post Office Jordan Station
(35.1907°N, 101.9342°W)
Time: 08:59:23
(UTC+00:00)

Cosmos 2098 Rocket - Visible Passes

Search period start: 09 May 2021 00:00
Search period end: 19 May 2021 00:00
Orbit: 367 x 1178 km, 82.9° (Epoch: 08 May)

Date Brightness Start Highest point End Pass type
(mag) Time Alt. Az. Time Alt. Az. Time Alt. Az.
11 May 7.3 11:08:41 10° E 11:11:11 12° ENE 11:13:46 10° NE visible
14 May 6.8 11:02:12 10° ESE 11:06:40 19° E 11:11:23 10° NE visible
15 May 7.4 10:31:14 10° E 10:32:11 10° ENE 10:33:08 10° ENE visible
17 May 6.6 10:56:39 10° SE 11:02:13 27° E 11:08:10 10° NNE visible
18 May 6.9 10:23:40 10° ESE 10:27:39 16° E 10:31:46 10° NE visible
